Torna al catalogo

STARLINK-3308

AttivoComunicazioniVLEO
NORAD 50846·PAYLOAD·🇺🇸 United States

Lanciato Jan 6, 2022 da Cape Canaveral Space Force Station

Loading…

Prossimi Passaggi (prossime 24 ore)

TLE

AggiornatoSource: CelesTrak SupGP

Epoca: Sep 15, 2026, 00:50 UTC

1 50846C 22001AV  26258.03520833 -.00042150  00000+0 -13555-2 0  2587
2 50846  53.1604  35.2349 0001132  79.6238 212.2776 15.31721601    17

Traccia STARLINK-3308 in tempo reale con AllMySat

Download on the App Store